This demonstration page uses our WeatherBlox Daily Observations layout. Learn more.

Left ArrowRight Arrow

Hourly Observations for September 3, 2019

Temp ( °F °C ) Dew Point ( °F °C ) Humidity (%) Winds ( mph kmh ) Pressure ( in mb ) Visibility ( mi km ) Precip ( " mm )
12:15 am 00:15 Clear 76 24.3 65 18.1 68 68 SSW 9 15 29.78 1008 10 16 0.00 0.00
12:35 am 00:35 Clear 76 24.3 64 17.8 67 67 SSW 10 17 29.77 1008 10 16 0.00 0.00
12:55 am 00:55 Clear 75 23.9 64 17.6 68 68 SSW 10 17 29.78 1008 10 16 0.00 0.00
1:15 am 01:15 Clear 74 23.6 63 17.2 67 67 SSW 9 15 29.78 1009 10 16 0.00 0.00
1:35 am 01:35 Clear 74 23.2 62 16.9 68 68 SSW 7 11 29.79 1009 10 16 0.00 0.00
1:55 am 01:55 Clear 73 22.6 62 16.5 69 69 SSW 3 6 29.78 1008 10 16 0.00 0.00
2:15 am 02:15 Clear 72 22.1 61 16.1 69 69 Calm 29.78 1009 10 16 0.00 0.00
2:35 am 02:35 Clear 67 19.7 61 16.3 81 81 Calm 29.82 1010 7 11 0.00 0.00
2:55 am 02:55 Clear 67 19.2 61 16.1 82 82 Calm 29.82 1010 10 16 0.00 0.00
3:15 am 03:15 Clear 67 19.3 60 15.6 79 79 Calm 29.82 1010 10 16 0.00 0.00
3:35 am 03:35 Clear 66 18.8 60 15.6 82 82 WSW 3 6 29.82 1010 7 11 0.00 0.00
3:55 am 03:55 Clear 66 18.8 60 15.4 81 81 SW 7 11 29.81 1010 10 16 0.00 0.00
4:15 am 04:15 Clear 66 19 61 15.9 82 82 SSW 9 15 29.80 1009 10 16 0.00 0.00
4:35 am 04:35 Clear 66 18.9 60 15.7 82 82 SW 3 6 29.80 1009 7 11 0.00 0.00
4:55 am 04:55 Clear 63 17 60 15.6 92 92 NNE 3 6 29.83 1010 7 11 0.00 0.00
5:15 am 05:15 Clear 66 19.1 59 15.1 78 78 NW 5 7 29.81 1009 10 16 0.00 0.00
5:35 am 05:35 Clear 66 18.7 59 15 79 79 NNW 8 13 29.82 1010 10 16 0.00 0.00
5:55 am 05:55 Clear 64 17.6 59 15.2 86 86 N 10 17 29.85 1011 10 16 0.00 0.00
6:15 am 06:15 Clear 63 17.4 59 15 86 86 NNW 5 7 29.85 1011 10 16 0.00 0.00
6:35 am 06:35 Clear 61 16.1 58 14.7 91 91 N 5 7 29.88 1012 10 16 0.00 0.00
6:55 am 06:55 Clear 61 16.2 58 14.7 91 91 N 6 9 29.89 1012 10 16 0.00 0.00
7:15 am 07:15 Sunny with Mist and Fog 59 15.2 58 14.6 96 96 NNE 3 6 29.90 1013 5 8 0.00 0.00
7:35 am 07:35 Sunny 60 15.3 58 14.5 95 95 Calm 29.90 1013 7 11 0.00 0.00
7:55 am 07:55 Sunny 62 16.5 60 15.5 94 94 S 5 7 29.89 1012 10 16 0.00 0.00
8:15 am 08:15 Sunny 64 17.9 61 16.1 89 89 S 5 7 29.88 1012 7 11 0.00 0.00
8:35 am 08:35 Sunny 67 19.4 62 16.9 86 86 N 13 20 29.89 1012 10 16 0.00 0.00
8:55 am 08:55 Sunny 68 20.2 62 16.8 81 81 N 3 6 29.88 1012 10 16 0.00 0.00
9:15 am 09:15 Sunny 71 21.6 64 17.6 78 78 N 8 13 29.89 1012 10 16 0.00 0.00
9:35 am 09:35 Partly Cloudy 74 23.2 69 20.4 84 84 NNE 14 22 29.88 1012 10 16 0.00 0.00
9:55 am 09:55 Mostly Cloudy 76 24.3 71 21.4 84 84 NE 21 33 29.89 1012 10 16 0.00 0.00
10:15 am 10:15 Partly Cloudy 77 25.2 68 19.8 72 72 NE 18 30 29.90 1012 10 16 0.00 0.00
10:35 am 10:35 Sunny 78 25.7 64 18 63 63 NE 16 26 29.89 1012 7 11 0.00 0.00
10:55 am 10:55 Sunny 79 26 63 17.3 59 59 NE 17 28 29.90 1013 7 11 0.00 0.00
11:15 am 11:15 Sunny 79 26.1 64 17.6 60 60 NE 21 33 29.91 1013 10 16 0.00 0.00
11:35 am 11:35 Sunny 79 26.2 62 16.7 56 56 NE 20 31 29.92 1013 10 16 0.00 0.00
11:55 am 11:55 Sunny 78 25.8 64 17.6 61 61 NE 18 30 29.92 1013 10 16 0.00 0.00
12:15 pm 12:15 Sunny 77 25.2 63 17.4 62 62 NE 15 24 29.93 1013 10 16 0.00 0.00
12:35 pm 12:35 Sunny 80 26.5 64 17.6 58 58 NE 17 28 29.92 1013 10 16 0.00 0.00
12:55 pm 12:55 Sunny 80 26.8 63 17.4 56 56 NE 15 24 29.91 1013 10 16 0.00 0.00
1:15 pm 13:15 Sunny 81 27.1 63 17.1 54 54 NE 14 22 29.91 1013 10 16 0.00 0.00
1:35 pm 13:35 Sunny 81 27 62 16.9 54 54 NNE 15 24 29.92 1013 10 16 0.00 0.00
1:55 pm 13:55 Sunny 81 27.1 64 17.8 57 57 NE 17 28 29.93 1014 10 16 0.00 0.00
2:15 pm 14:15 Sunny 81 27.3 64 17.6 55 55 NNE 10 17 29.93 1014 10 16 0.00 0.00
2:35 pm 14:35 Sunny 81 27.3 63 17.1 54 54 NNE 17 28 29.93 1014 10 16 0.00 0.00
2:55 pm 14:55 Sunny 81 27.3 62 16.6 52 52 NE 17 28 29.93 1014 10 16 0.00 0.00
3:15 pm 15:15 Sunny 82 27.6 64 17.7 55 55 NE 15 24 29.93 1013 10 16 0.00 0.00
3:35 pm 15:35 Sunny 82 27.6 64 17.6 54 54 NE 14 22 29.93 1013 10 16 0.00 0.00
3:55 pm 15:55 Sunny 81 27.3 64 18 57 57 NE 13 20 29.93 1014 7 11 0.00 0.00
4:15 pm 16:15 Sunny 82 27.6 64 18 56 56 NNE 14 22 29.94 1014 10 16 0.00 0.00
4:35 pm 16:35 Sunny 81 27.4 64 17.5 55 55 NE 15 24 29.95 1014 10 16 0.00 0.00
4:55 pm 16:55 Sunny 81 27 63 17.1 55 55 NNE 13 20 29.95 1014 10 16 0.00 0.00
5:15 pm 17:15 Sunny 81 27 63 17.3 55 55 NNE 12 19 29.95 1014 10 16 0.00 0.00
5:35 pm 17:35 Sunny 80 26.5 64 17.7 59 59 NE 14 22 29.97 1015 10 16 0.00 0.00
5:55 pm 17:55 Sunny 78 25.8 62 16.9 58 58 NE 8 13 29.97 1015 10 16 0.00 0.00
6:15 pm 18:15 Sunny 77 25.1 60 15.4 55 55 NE 9 15 29.98 1015 10 16 0.00 0.00
6:35 pm 18:35 Sunny 76 24.6 60 15.3 56 56 NE 7 11 29.99 1016 10 16 0.00 0.00
6:55 pm 18:55 Sunny 75 23.8 61 16.2 63 63 NE 8 13 30.00 1016 10 16 0.00 0.00
7:15 pm 19:15 Sunny 72 22.3 60 15.5 66 66 NE 6 9 30.02 1017 10 16 0.00 0.00
7:35 pm 19:35 Sunny 69 20.8 61 16.2 75 75 ENE 5 7 30.03 1017 10 16 0.00 0.00
7:55 pm 19:55 Sunny 68 20.2 60 15.4 74 74 ENE 6 9 30.04 1017 10 16 0.00 0.00
8:15 pm 20:15 Clear 67 19.4 59 15.2 77 77 NE 5 7 30.05 1018 10 16 0.00 0.00
8:35 pm 20:35 Clear 65 18.2 60 15.4 84 84 NE 3 6 30.07 1018 10 16 0.00 0.00
8:55 pm 20:55 Clear 64 18 60 15.5 85 85 NE 3 6 30.07 1018 10 16 0.00 0.00
9:15 pm 21:15 Clear 63 17.4 61 16 92 92 NNE 3 6 30.08 1019 10 16 0.00 0.00
9:35 pm 21:35 Clear 63 17 60 15.7 92 92 Calm 30.09 1019 10 16 0.00 0.00
9:55 pm 21:55 Clear 62 16.4 60 15.8 96 96 Calm 30.11 1020 10 16 0.00 0.00
10:15 pm 22:15 Clear 62 16.5 60 15.5 94 94 Calm 30.11 1020 10 16 0.00 0.00
10:35 pm 22:35 Clear 60 15.7 60 15.5 99 99 NNE 3 6 30.12 1020 10 16 0.00 0.00
10:55 pm 22:55 Clear 60 15.7 59 15 96 96 NNE 5 7 30.12 1020 10 16 0.00 0.00
11:15 pm 23:15 Clear 60 15.5 59 15 97 97 N 3 6 30.13 1020 10 16 0.00 0.00
11:35 pm 23:35 Clear 59 15.1 59 14.8 98 98 Calm 30.13 1020 7 11 0.00 0.00
11:55 pm 23:55 Clear 59 15.2 59 14.8 97 97 Calm 30.13 1020 10 16 0.00 0.00

Powered by AerisWeather